CEB357 RPVI-RPSP

Flight info

Callsign CEB357
Flight time 0h 29m
Altitude 17000
Route NANAS3C NANAS NANAS1N
Aircraft A20N/M-SDE2E3FGHIJ1RWXY/LB1

Departure

Time 2026-04-28 12:26
Airport Iloilo International Airport (RPVI)

Arrival

Time 2026-04-28 12:55
Airport Bohol-Panglao International Airport (RPSP)
Time Latitude Longitude Altitude Speed Heading
2026-04-28 12:14 10.83112 122.49653 141 ft 0 kts 110°
2026-04-28 12:15 10.83113 122.49651 141 ft 1 kts 111°
2026-04-28 12:16 10.83118 122.49637 141 ft 2 kts 111°
2026-04-28 12:16 10.83124 122.49623 140 ft 2 kts 111°
2026-04-28 12:16 10.83129 122.49608 140 ft 2 kts 111°
2026-04-28 12:16 10.83135 122.49593 140 ft 2 kts 115°
2026-04-28 12:17 10.83144 122.49582 140 ft 2 kts 149°
2026-04-28 12:17 10.83159 122.49577 140 ft 2 kts 176°
2026-04-28 12:17 10.83170 122.49577 140 ft 0 kts 198°
2026-04-28 12:17 10.83177 122.49580 140 ft 0 kts 201°
2026-04-28 12:18 10.83178 122.49580 140 ft 0 kts 201°
2026-04-28 12:20 10.83159 122.49573 140 ft 4 kts 201°
2026-04-28 12:20 10.83118 122.49558 139 ft 8 kts 200°
2026-04-28 12:21 10.83080 122.49543 139 ft 5 kts 200°
2026-04-28 12:21 10.83042 122.49519 139 ft 7 kts 234°
2026-04-28 12:21 10.83036 122.49464 139 ft 8 kts 279°
2026-04-28 12:21 10.83057 122.49402 139 ft 10 kts 291°
2026-04-28 12:22 10.83084 122.49330 139 ft 11 kts 288°
2026-04-28 12:22 10.83069 122.49252 139 ft 12 kts 211°
2026-04-28 12:22 10.82984 122.49217 139 ft 14 kts 200°
2026-04-28 12:22 10.82871 122.49176 139 ft 20 kts 200°
2026-04-28 12:23 10.82719 122.49120 137 ft 26 kts 199°
2026-04-28 12:23 10.82535 122.49052 137 ft 29 kts 199°
2026-04-28 12:23 10.82372 122.48993 136 ft 15 kts 199°
2026-04-28 12:23 10.82293 122.48987 136 ft 8 kts 177°
2026-04-28 12:24 10.82256 122.48972 136 ft 3 kts 224°
2026-04-28 12:24 10.82253 122.48960 136 ft 1 kts 311°
2026-04-28 12:24 10.82274 122.48956 136 ft 3 kts
2026-04-28 12:24 10.82284 122.48959 136 ft 0 kts 20°
2026-04-28 12:25 10.82381 122.48997 136 ft 49 kts 20°
2026-04-28 12:26 10.82987 122.49220 140 ft 129 kts 21°
2026-04-28 12:26 10.83943 122.49575 560 ft 151 kts 21°
2026-04-28 12:26 10.84921 122.49947 1284 ft 152 kts 33°
2026-04-28 12:26 10.85499 122.50741 2017 ft 147 kts 79°
2026-04-28 12:27 10.85345 122.51789 2595 ft 164 kts 115°
2026-04-28 12:27 10.84421 122.52590 3147 ft 191 kts 159°
2026-04-28 12:27 10.83031 122.52547 3767 ft 214 kts 188°
2026-04-28 12:27 10.81492 122.52193 4308 ft 238 kts 189°
2026-04-28 12:28 10.79828 122.51809 4934 ft 255 kts 188°
2026-04-28 12:28 10.78026 122.51784 5551 ft 267 kts 163°
2026-04-28 12:28 10.76273 122.52478 6353 ft 274 kts 151°
2026-04-28 12:28 10.74558 122.53368 7253 ft 279 kts 150°
2026-04-28 12:29 10.71065 122.55151 9031 ft 287 kts 152°
2026-04-28 12:29 10.69253 122.56035 9870 ft 291 kts 152°
2026-04-28 12:29 10.67420 122.56912 10586 ft 299 kts 153°
2026-04-28 12:30 10.65474 122.57836 11028 ft 316 kts 153°
2026-04-28 12:30 10.63423 122.58800 11412 ft 335 kts 153°
2026-04-28 12:30 10.61220 122.59834 11763 ft 353 kts 153°
2026-04-28 12:30 10.58952 122.60895 12190 ft 367 kts 153°
2026-04-28 12:31 10.56617 122.61984 12839 ft 372 kts 153°
2026-04-28 12:31 10.54222 122.63101 13527 ft 376 kts 153°
2026-04-28 12:31 10.51860 122.64204 14191 ft 380 kts 153°
2026-04-28 12:31 10.49426 122.65344 14845 ft 384 kts 153°
2026-04-28 12:32 10.46990 122.66497 15466 ft 388 kts 153°
2026-04-28 12:32 10.44544 122.67653 16069 ft 392 kts 153°
2026-04-28 12:32 10.42067 122.68817 16574 ft 395 kts 153°
2026-04-28 12:32 10.39550 122.69995 16831 ft 397 kts 153°
2026-04-28 12:33 10.37018 122.71177 16876 ft 397 kts 153°
2026-04-28 12:33 10.34512 122.72355 16883 ft 397 kts 153°
2026-04-28 12:33 10.32004 122.73537 16883 ft 397 kts 153°
2026-04-28 12:33 10.29465 122.74737 16885 ft 397 kts 153°
2026-04-28 12:34 10.26971 122.75915 16885 ft 397 kts 153°
2026-04-28 12:34 10.24448 122.77106 16888 ft 397 kts 153°
2026-04-28 12:34 10.21936 122.78294 16890 ft 397 kts 153°
2026-04-28 12:34 10.19444 122.79470 16894 ft 397 kts 153°
2026-04-28 12:35 10.16929 122.80655 16897 ft 397 kts 153°
2026-04-28 12:35 10.14383 122.81851 16904 ft 397 kts 153°
2026-04-28 12:35 10.11895 122.83020 16910 ft 397 kts 153°
2026-04-28 12:35 10.09356 122.84214 16916 ft 397 kts 153°
2026-04-28 12:36 10.06870 122.85384 16926 ft 397 kts 153°
2026-04-28 12:36 10.04342 122.86574 16936 ft 397 kts 153°
2026-04-28 12:36 10.01821 122.87760 16944 ft 397 kts 153°
2026-04-28 12:36 9.99326 122.88937 16952 ft 397 kts 153°
2026-04-28 12:37 9.96795 122.90131 16959 ft 397 kts 153°
2026-04-28 12:37 9.94285 122.91312 16965 ft 397 kts 153°
2026-04-28 12:37 9.91776 122.92495 16971 ft 397 kts 153°
2026-04-28 12:37 9.89269 122.93677 16975 ft 397 kts 153°
2026-04-28 12:38 9.86763 122.94852 16977 ft 397 kts 153°
2026-04-28 12:38 9.84244 122.96030 16981 ft 397 kts 153°
2026-04-28 12:38 9.81773 122.97236 16982 ft 396 kts 147°
2026-04-28 12:38 9.79644 122.98958 16985 ft 390 kts 129°
2026-04-28 12:39 9.78137 123.01221 16989 ft 386 kts 113°
2026-04-28 12:39 9.77215 123.03779 16881 ft 385 kts 106°
2026-04-28 12:39 9.76402 123.06376 16639 ft 383 kts 105°
2026-04-28 12:39 9.75605 123.08942 16397 ft 381 kts 105°
2026-04-28 12:40 9.74808 123.11488 16155 ft 380 kts 106°
2026-04-28 12:40 9.74005 123.14031 15913 ft 378 kts 106°
2026-04-28 12:40 9.73208 123.16542 15673 ft 378 kts 106°
2026-04-28 12:40 9.72395 123.19087 15399 ft 377 kts 106°
2026-04-28 12:41 9.71592 123.21596 15079 ft 375 kts 106°
2026-04-28 12:41 9.70795 123.24085 14666 ft 373 kts 106°
2026-04-28 12:41 9.69989 123.26600 14200 ft 370 kts 107°
2026-04-28 12:41 9.69200 123.29063 13704 ft 367 kts 107°
2026-04-28 12:42 9.68417 123.31506 13196 ft 365 kts 107°
2026-04-28 12:42 9.67639 123.33932 12701 ft 361 kts 107°
2026-04-28 12:42 9.66869 123.36334 12199 ft 359 kts 107°
2026-04-28 12:42 9.66104 123.38717 11694 ft 356 kts 107°
2026-04-28 12:43 9.65342 123.41094 11194 ft 354 kts 107°
2026-04-28 12:43 9.64588 123.43446 10698 ft 350 kts 107°
2026-04-28 12:43 9.63841 123.45774 10490 ft 337 kts 107°
2026-04-28 12:43 9.63141 123.47955 10353 ft 322 kts 107°
2026-04-28 12:44 9.62459 123.50078 10224 ft 308 kts 107°
2026-04-28 12:44 9.61807 123.52106 10113 ft 295 kts 107°
2026-04-28 12:44 9.61189 123.54028 10013 ft 282 kts 107°
2026-04-28 12:44 9.60638 123.55931 9641 ft 280 kts 97°
2026-04-28 12:45 9.60787 123.57857 9281 ft 277 kts 71°
2026-04-28 12:45 9.61765 123.59515 8934 ft 276 kts 47°
2026-04-28 12:45 9.63156 123.60833 8622 ft 273 kts 44°
2026-04-28 12:45 9.64566 123.62136 8295 ft 271 kts 44°
2026-04-28 12:46 9.65935 123.63412 7974 ft 269 kts 44°
2026-04-28 12:46 9.67310 123.64704 7655 ft 267 kts 44°
2026-04-28 12:46 9.68667 123.65990 7343 ft 265 kts 45°
2026-04-28 12:46 9.70004 123.67268 7035 ft 264 kts 45°
2026-04-28 12:47 9.71338 123.68540 6727 ft 262 kts 45°
2026-04-28 12:47 9.72664 123.69803 6420 ft 260 kts 45°
2026-04-28 12:47 9.73990 123.71063 6111 ft 259 kts 45°
2026-04-28 12:47 9.75299 123.72307 5809 ft 257 kts 45°
2026-04-28 12:48 9.76607 123.73549 5502 ft 256 kts 45°
2026-04-28 12:48 9.77882 123.74792 5196 ft 254 kts 47°
2026-04-28 12:48 9.79061 123.76138 4888 ft 252 kts 52°
2026-04-28 12:48 9.80158 123.77522 4581 ft 250 kts 52°
2026-04-28 12:49 9.81228 123.78881 4278 ft 247 kts 53°
2026-04-28 12:49 9.82043 123.80366 3986 ft 242 kts 79°
2026-04-28 12:49 9.81911 123.82001 3980 ft 229 kts 109°
2026-04-28 12:49 9.81025 123.83323 3768 ft 230 kts 137°
2026-04-28 12:50 9.79590 123.84087 3564 ft 230 kts 158°
2026-04-28 12:50 9.78084 123.84573 3363 ft 226 kts 158°
2026-04-28 12:50 9.76592 123.85051 3166 ft 221 kts 158°
2026-04-28 12:50 9.75128 123.85523 2978 ft 216 kts 158°
2026-04-28 12:51 9.73727 123.85978 2799 ft 210 kts 160°
2026-04-28 12:51 9.72290 123.86008 2726 ft 203 kts 193°
2026-04-28 12:51 9.71069 123.85403 2722 ft 186 kts 210°
2026-04-28 12:51 9.70015 123.84695 2557 ft 179 kts 211°
2026-04-28 12:52 9.68978 123.84007 2329 ft 175 kts 210°
2026-04-28 12:52 9.67961 123.83371 2113 ft 170 kts 208°
2026-04-28 12:52 9.66974 123.82776 1914 ft 163 kts 207°
2026-04-28 12:52 9.65985 123.82190 1713 ft 164 kts 207°
2026-04-28 12:53 9.64987 123.81598 1506 ft 164 kts 207°
2026-04-28 12:53 9.64002 123.81011 1290 ft 162 kts 208°
2026-04-28 12:53 9.63052 123.80443 1074 ft 153 kts 207°
2026-04-28 12:53 9.62163 123.79906 866 ft 147 kts 208°
2026-04-28 12:54 9.61279 123.79374 683 ft 146 kts 207°
2026-04-28 12:54 9.60396 123.78848 513 ft 146 kts 207°
2026-04-28 12:54 9.59523 123.78334 333 ft 145 kts 208°
2026-04-28 12:54 9.58649 123.77813 142 ft 144 kts 209°
2026-04-28 12:55 9.57796 123.77308 44 ft 133 kts 211°
2026-04-28 12:55 9.57137 123.76916 43 ft 86 kts 211°
2026-04-28 12:55 9.56766 123.76691 41 ft 39 kts 208°
2026-04-28 12:55 9.56649 123.76640 43 ft 8 kts 226°
2026-04-28 12:56 9.56682 123.76642 42 ft 8 kts 26°
2026-04-28 12:56 9.56734 123.76678 42 ft 10 kts 35°
2026-04-28 12:56 9.56801 123.76717 41 ft 12 kts 28°
2026-04-28 12:56 9.56875 123.76759 42 ft 12 kts 31°
2026-04-28 12:57 9.56924 123.76801 43 ft 8 kts 72°
2026-04-28 12:57 9.56909 123.76853 43 ft 8 kts 122°
2026-04-28 12:57 9.56876 123.76908 43 ft 9 kts 121°
2026-04-28 12:57 9.56840 123.76969 43 ft 8 kts 113°
2026-04-28 12:58 9.56845 123.77007 43 ft 5 kts 57°
2026-04-28 12:58 9.56877 123.77035 44 ft 6 kts 33°
2026-04-28 12:58 9.56915 123.77058 44 ft 6 kts 30°
2026-04-28 12:58 9.56953 123.77083 45 ft 5 kts 53°
2026-04-28 12:59 9.56951 123.77115 45 ft 4 kts 112°
2026-04-28 12:59 9.56935 123.77144 46 ft 4 kts 123°
2026-04-28 12:59 9.56918 123.77172 46 ft 4 kts 121°
2026-04-28 12:59 9.56916 123.77175 46 ft 0 kts 120°